Data supplied by UK-AIR on 6/6/2017
All Data GMT hour ending 
Status: R =Ratified P=Provisional,P*=As supplied
,,Strathvaich,,,,,,,,,,,,,,,,,,,,,,,
Date,time,"Ozone",status,unit
 
01-01-2016,01:00,75.17137,R,ugm-3
01-01-2016,02:00,75.10484,R,ugm-3
01-01-2016,03:00,75.43746,R,ugm-3
01-01-2016,04:00,72.44391,R,ugm-3
01-01-2016,05:00,72.34413,R,ugm-3
01-01-2016,06:00,71.99488,R,ugm-3
01-01-2016,07:00,70.79746,R,ugm-3
01-01-2016,08:00,70.94714,R,ugm-3
01-01-2016,09:00,68.30283,R,ugm-3
01-01-2016,10:00,66.90584,R,ugm-3
01-01-2016,11:00,64.71057,R,ugm-3
01-01-2016,12:00,66.15746,R,ugm-3
01-01-2016,13:00,64.61079,R,ugm-3
01-01-2016,14:00,59.57165,R,ugm-3
01-01-2016,15:00,62.36563,R,ugm-3
01-01-2016,16:00,62.96434,R,ugm-3
01-01-2016,17:00,62.81466,R,ugm-3
01-01-2016,18:00,66.00778,R,ugm-3
01-01-2016,19:00,66.80606,R,ugm-3
01-01-2016,20:00,64.06197,R,ugm-3
01-01-2016,21:00,63.21380,R,ugm-3
01-01-2016,22:00,65.70842,R,ugm-3
01-01-2016,23:00,67.85380,R,ugm-3
01-01-2016,24:00,68.60219,R,ugm-3
02-01-2016,01:00,68.05337,R,ugm-3
02-01-2016,02:00,67.18857,R,ugm-3
02-01-2016,03:00,64.96004,R,ugm-3
02-01-2016,04:00,62.01638,R,ugm-3
02-01-2016,05:00,61.91659,R,ugm-3
02-01-2016,06:00,66.90584,R,ugm-3
02-01-2016,07:00,67.55445,R,ugm-3
02-01-2016,08:00,67.40477,R,ugm-3
02-01-2016,09:00,66.40692,R,ugm-3
02-01-2016,10:00,64.81036,R,ugm-3
02-01-2016,11:00,63.41337,R,ugm-3
02-01-2016,12:00,58.62369,R,ugm-3
02-01-2016,13:00,53.13551,R,ugm-3
02-01-2016,14:00,51.58885,R,ugm-3
02-01-2016,15:00,47.09852,R,ugm-3
02-01-2016,16:00,49.79272,R,ugm-3
02-01-2016,17:00,53.38498,R,ugm-3
02-01-2016,18:00,55.28089,R,ugm-3
02-01-2016,19:00,56.67788,R,ugm-3
02-01-2016,20:00,54.83186,R,ugm-3
02-01-2016,21:00,48.34583,R,ugm-3
02-01-2016,22:00,44.55400,R,ugm-3
02-01-2016,23:00,43.55615,R,ugm-3
02-01-2016,24:00,42.20906,R,ugm-3
03-01-2016,01:00,42.64146,R,ugm-3
03-01-2016,02:00,41.11142,R,ugm-3
03-01-2016,03:00,40.51271,R,ugm-3
03-01-2016,04:00,39.06583,R,ugm-3
03-01-2016,05:00,39.66454,R,ugm-3
03-01-2016,06:00,42.30884,R,ugm-3
03-01-2016,07:00,43.25680,R,ugm-3
03-01-2016,08:00,37.36948,R,ugm-3
03-01-2016,09:00,30.23486,R,ugm-3
03-01-2016,10:00,37.91830,R,ugm-3
03-01-2016,11:00,42.75787,R,ugm-3
03-01-2016,12:00,45.35228,R,ugm-3
03-01-2016,13:00,43.70583,R,ugm-3
03-01-2016,14:00,42.55830,R,ugm-3
03-01-2016,15:00,40.76217,R,ugm-3
03-01-2016,16:00,37.07013,R,ugm-3
03-01-2016,17:00,33.12862,R,ugm-3
03-01-2016,18:00,31.48217,R,ugm-3
03-01-2016,19:00,29.88561,R,ugm-3
03-01-2016,20:00,32.72948,R,ugm-3
03-01-2016,21:00,55.38068,R,ugm-3
03-01-2016,22:00,67.75402,R,ugm-3
03-01-2016,23:00,66.25724,R,ugm-3
03-01-2016,24:00,57.42627,R,ugm-3
04-01-2016,01:00,48.02985,R,ugm-3
04-01-2016,02:00,51.28949,R,ugm-3
04-01-2016,03:00,48.39573,R,ugm-3
04-01-2016,04:00,45.35228,R,ugm-3
04-01-2016,05:00,48.44562,R,ugm-3
04-01-2016,06:00,46.10067,R,ugm-3
04-01-2016,07:00,40.11357,R,ugm-3
04-01-2016,08:00,43.15701,R,ugm-3
04-01-2016,09:00,42.45852,R,ugm-3
04-01-2016,10:00,43.30669,R,ugm-3
04-01-2016,11:00,44.95314,R,ugm-3
04-01-2016,12:00,48.29594,R,ugm-3
04-01-2016,13:00,49.29379,R,ugm-3
04-01-2016,14:00,48.64519,R,ugm-3
04-01-2016,15:00,48.74497,R,ugm-3
04-01-2016,16:00,50.84046,R,ugm-3
04-01-2016,17:00,52.33723,R,ugm-3
04-01-2016,18:00,53.48476,R,ugm-3
04-01-2016,19:00,55.18111,R,ugm-3
04-01-2016,20:00,57.02713,R,ugm-3
04-01-2016,21:00,59.72132,R,ugm-3
04-01-2016,22:00,61.06842,R,ugm-3
04-01-2016,23:00,63.81251,R,ugm-3
04-01-2016,24:00,64.76047,R,ugm-3
05-01-2016,01:00,65.52548,R,ugm-3
05-01-2016,02:00,65.59201,R,ugm-3
05-01-2016,03:00,65.10971,R,ugm-3
05-01-2016,04:00,65.60864,R,ugm-3
05-01-2016,05:00,66.90584,R,ugm-3
05-01-2016,06:00,68.25294,R,ugm-3
05-01-2016,07:00,67.40477,R,ugm-3
05-01-2016,08:00,66.40692,R,ugm-3
05-01-2016,09:00,67.45466,R,ugm-3
05-01-2016,10:00,67.40477,R,ugm-3
05-01-2016,11:00,66.20735,R,ugm-3
05-01-2016,12:00,65.70842,R,ugm-3
05-01-2016,13:00,65.80821,R,ugm-3
05-01-2016,14:00,64.66068,R,ugm-3
05-01-2016,15:00,63.76262,R,ugm-3
05-01-2016,16:00,64.12849,R,ugm-3
05-01-2016,17:00,63.31358,R,ugm-3
05-01-2016,18:00,62.41552,R,ugm-3
05-01-2016,19:00,60.27014,R,ugm-3
05-01-2016,20:00,56.42842,R,ugm-3
05-01-2016,21:00,53.78412,R,ugm-3
05-01-2016,22:00,54.13336,R,ugm-3
05-01-2016,23:00,52.58670,R,ugm-3
05-01-2016,24:00,51.28949,R,ugm-3
06-01-2016,01:00,50.82383,R,ugm-3
06-01-2016,02:00,53.08562,R,ugm-3
06-01-2016,03:00,51.68863,R,ugm-3
06-01-2016,04:00,46.10067,R,ugm-3
06-01-2016,05:00,49.19401,R,ugm-3
06-01-2016,06:00,52.93594,R,ugm-3
06-01-2016,07:00,55.97939,R,ugm-3
06-01-2016,08:00,57.77552,R,ugm-3
06-01-2016,09:00,57.82541,R,ugm-3
06-01-2016,10:00,56.72777,R,ugm-3
06-01-2016,11:00,57.37638,R,ugm-3
06-01-2016,12:00,58.42412,R,ugm-3
06-01-2016,13:00,58.87315,R,ugm-3
06-01-2016,14:00,57.57595,R,ugm-3
06-01-2016,15:00,57.82541,R,ugm-3
06-01-2016,16:00,59.12261,R,ugm-3
06-01-2016,17:00,59.62154,R,ugm-3
06-01-2016,18:00,60.32003,R,ugm-3
06-01-2016,19:00,61.01853,R,ugm-3
06-01-2016,20:00,60.91874,R,ugm-3
06-01-2016,21:00,61.46756,R,ugm-3
06-01-2016,22:00,62.36563,R,ugm-3
06-01-2016,23:00,61.16821,R,ugm-3
06-01-2016,24:00,60.46971,R,ugm-3
07-01-2016,01:00,61.80018,R,ugm-3
07-01-2016,02:00,58.20792,R,ugm-3
07-01-2016,03:00,54.28304,R,ugm-3
07-01-2016,04:00,47.84691,R,ugm-3
07-01-2016,05:00,42.85766,R,ugm-3
07-01-2016,06:00,37.07013,R,ugm-3
07-01-2016,07:00,38.16776,R,ugm-3
07-01-2016,08:00,39.66454,R,ugm-3
07-01-2016,09:00,33.12862,R,ugm-3
07-01-2016,10:00,36.87056,R,ugm-3
07-01-2016,11:00,52.33723,R,ugm-3
07-01-2016,12:00,53.98369,R,ugm-3
07-01-2016,13:00,42.20906,R,ugm-3
07-01-2016,14:00,35.67314,R,ugm-3
07-01-2016,15:00,33.32819,R,ugm-3
07-01-2016,16:00,33.27830,R,ugm-3
07-01-2016,17:00,35.67314,R,ugm-3
07-01-2016,18:00,58.87315,R,ugm-3
07-01-2016,19:00,74.83875,R,ugm-3
07-01-2016,20:00,75.23789,R,ugm-3
07-01-2016,21:00,69.60004,R,ugm-3
07-01-2016,22:00,74.58929,R,ugm-3
07-01-2016,23:00,67.40477,R,ugm-3
07-01-2016,24:00,58.52390,R,ugm-3
08-01-2016,01:00,57.54268,R,ugm-3
08-01-2016,02:00,75.10484,R,ugm-3
08-01-2016,03:00,64.01208,R,ugm-3
08-01-2016,04:00,58.82326,R,ugm-3
08-01-2016,05:00,56.62799,R,ugm-3
08-01-2016,06:00,59.97079,R,ugm-3
08-01-2016,07:00,59.87100,R,ugm-3
08-01-2016,08:00,63.11401,R,ugm-3
08-01-2016,09:00,62.76477,R,ugm-3
08-01-2016,10:00,59.87100,R,ugm-3
08-01-2016,11:00,68.55230,R,ugm-3
08-01-2016,12:00,66.15746,R,ugm-3
08-01-2016,13:00,72.19445,R,ugm-3
08-01-2016,14:00,71.09681,R,ugm-3
08-01-2016,15:00,72.09466,R,ugm-3
08-01-2016,16:00,71.09681,R,ugm-3
08-01-2016,17:00,71.49595,R,ugm-3
08-01-2016,18:00,71.19660,R,ugm-3
08-01-2016,19:00,71.84520,R,ugm-3
08-01-2016,20:00,68.35273,R,ugm-3
08-01-2016,21:00,65.05982,R,ugm-3
08-01-2016,22:00,67.00563,R,ugm-3
08-01-2016,23:00,67.20520,R,ugm-3
08-01-2016,24:00,66.75617,R,ugm-3
09-01-2016,01:00,66.39029,R,ugm-3
09-01-2016,02:00,57.67573,R,ugm-3
09-01-2016,03:00,52.73637,R,ugm-3
09-01-2016,04:00,51.08992,R,ugm-3
09-01-2016,05:00,46.74927,R,ugm-3
09-01-2016,06:00,42.80777,R,ugm-3
09-01-2016,07:00,39.21551,R,ugm-3
09-01-2016,08:00,40.26325,R,ugm-3
09-01-2016,09:00,37.36948,R,ugm-3
09-01-2016,10:00,35.57335,R,ugm-3
09-01-2016,11:00,44.70368,R,ugm-3
09-01-2016,12:00,48.84476,R,ugm-3
09-01-2016,13:00,50.59100,R,ugm-3
09-01-2016,14:00,51.04003,R,ugm-3
09-01-2016,15:00,52.83616,R,ugm-3
09-01-2016,16:00,57.67573,R,ugm-3
09-01-2016,17:00,60.17036,R,ugm-3
09-01-2016,18:00,64.66068,R,ugm-3
09-01-2016,19:00,64.36133,R,ugm-3
09-01-2016,20:00,60.81896,R,ugm-3
09-01-2016,21:00,63.01423,R,ugm-3
09-01-2016,22:00,61.31788,R,ugm-3
09-01-2016,23:00,62.31573,R,ugm-3
09-01-2016,24:00,67.50455,R,ugm-3
10-01-2016,01:00,72.04477,R,ugm-3
10-01-2016,02:00,72.31086,R,ugm-3
10-01-2016,03:00,69.79961,R,ugm-3
10-01-2016,04:00,51.18971,R,ugm-3
10-01-2016,05:00,46.49981,R,ugm-3
10-01-2016,06:00,46.59960,R,ugm-3
10-01-2016,07:00,51.43917,R,ugm-3
10-01-2016,08:00,62.86455,R,ugm-3
10-01-2016,09:00,69.45036,R,ugm-3
10-01-2016,10:00,68.80176,R,ugm-3
10-01-2016,11:00,69.00133,R,ugm-3
10-01-2016,12:00,70.14886,R,ugm-3
10-01-2016,13:00,73.09251,R,ugm-3
10-01-2016,14:00,72.74327,R,ugm-3
10-01-2016,15:00,60.91874,R,ugm-3
10-01-2016,16:00,57.42627,R,ugm-3
10-01-2016,17:00,66.30713,R,ugm-3
10-01-2016,18:00,65.85810,R,ugm-3
10-01-2016,19:00,69.55015,R,ugm-3
10-01-2016,20:00,64.91014,R,ugm-3
10-01-2016,21:00,60.96864,R,ugm-3
10-01-2016,22:00,60.51960,R,ugm-3
10-01-2016,23:00,62.81466,R,ugm-3
10-01-2016,24:00,57.72562,R,ugm-3
11-01-2016,01:00,56.07917,R,ugm-3
11-01-2016,02:00,55.74655,R,ugm-3
11-01-2016,03:00,56.07917,R,ugm-3
11-01-2016,04:00,56.42842,R,ugm-3
11-01-2016,05:00,63.71272,R,ugm-3
11-01-2016,06:00,57.97509,R,ugm-3
11-01-2016,07:00,47.69723,R,ugm-3
11-01-2016,08:00,53.03573,R,ugm-3
11-01-2016,09:00,53.33508,R,ugm-3
11-01-2016,10:00,52.73637,R,ugm-3
11-01-2016,11:00,50.64089,R,ugm-3
11-01-2016,12:00,52.78627,R,ugm-3
11-01-2016,13:00,55.43057,R,ugm-3
11-01-2016,14:00,56.37853,R,ugm-3
11-01-2016,15:00,51.23960,R,ugm-3
11-01-2016,16:00,43.35658,R,ugm-3
11-01-2016,17:00,46.59960,R,ugm-3
11-01-2016,18:00,47.94669,R,ugm-3
11-01-2016,19:00,49.49336,R,ugm-3
11-01-2016,20:00,49.94239,R,ugm-3
11-01-2016,21:00,54.23315,R,ugm-3
11-01-2016,22:00,58.12476,R,ugm-3
11-01-2016,23:00,65.25939,R,ugm-3
11-01-2016,24:00,67.15531,R,ugm-3
12-01-2016,01:00,63.06412,R,ugm-3
12-01-2016,02:00,71.91172,R,ugm-3
12-01-2016,03:00,73.44176,R,ugm-3
12-01-2016,04:00,73.74112,R,ugm-3
12-01-2016,05:00,74.14026,R,ugm-3
12-01-2016,06:00,73.79101,R,ugm-3
12-01-2016,07:00,72.69337,R,ugm-3
12-01-2016,08:00,72.59359,R,ugm-3
12-01-2016,09:00,72.49380,R,ugm-3
12-01-2016,10:00,71.64563,R,ugm-3
12-01-2016,11:00,70.64778,R,ugm-3
12-01-2016,12:00,68.10326,R,ugm-3
12-01-2016,13:00,67.80391,R,ugm-3
12-01-2016,14:00,68.80176,R,ugm-3
12-01-2016,15:00,64.36133,R,ugm-3
12-01-2016,16:00,55.28089,R,ugm-3
12-01-2016,17:00,55.03143,R,ugm-3
12-01-2016,18:00,56.97724,R,ugm-3
12-01-2016,19:00,57.27659,R,ugm-3
12-01-2016,20:00,60.36993,R,ugm-3
12-01-2016,21:00,61.86670,R,ugm-3
12-01-2016,22:00,62.06627,R,ugm-3
12-01-2016,23:00,63.16391,R,ugm-3
12-01-2016,24:00,67.35488,R,ugm-3
13-01-2016,01:00,71.51258,R,ugm-3
13-01-2016,02:00,73.30871,R,ugm-3
13-01-2016,03:00,76.33553,R,ugm-3
13-01-2016,04:00,80.47660,R,ugm-3
13-01-2016,05:00,81.97338,R,ugm-3
13-01-2016,06:00,82.47230,R,ugm-3
13-01-2016,07:00,83.71962,R,ugm-3
13-01-2016,08:00,82.97123,R,ugm-3
13-01-2016,09:00,82.72177,R,ugm-3
13-01-2016,10:00,82.47230,R,ugm-3
13-01-2016,11:00,79.17940,R,ugm-3
13-01-2016,12:00,78.28133,R,ugm-3
13-01-2016,13:00,76.48520,R,ugm-3
13-01-2016,14:00,70.19875,R,ugm-3
13-01-2016,15:00,64.96004,R,ugm-3
13-01-2016,16:00,63.36348,R,ugm-3
13-01-2016,17:00,61.11831,R,ugm-3
13-01-2016,18:00,62.56520,R,ugm-3
13-01-2016,19:00,61.41767,R,ugm-3
13-01-2016,20:00,60.46971,R,ugm-3
13-01-2016,21:00,60.91874,R,ugm-3
13-01-2016,22:00,60.02068,R,ugm-3
13-01-2016,23:00,60.36993,R,ugm-3
13-01-2016,24:00,61.16821,R,ugm-3
14-01-2016,01:00,61.80018,R,ugm-3
14-01-2016,02:00,62.33236,R,ugm-3
14-01-2016,03:00,66.65638,R,ugm-3
14-01-2016,04:00,73.54155,R,ugm-3
14-01-2016,05:00,69.55015,R,ugm-3
14-01-2016,06:00,79.02972,R,ugm-3
14-01-2016,07:00,82.52220,R,ugm-3
14-01-2016,08:00,82.67187,R,ugm-3
14-01-2016,09:00,81.57424,R,ugm-3
14-01-2016,10:00,81.17510,R,ugm-3
14-01-2016,11:00,81.12521,R,ugm-3
14-01-2016,12:00,81.27488,R,ugm-3
14-01-2016,13:00,81.07531,R,ugm-3
14-01-2016,14:00,81.22499,R,ugm-3
14-01-2016,15:00,77.83230,R,ugm-3
14-01-2016,16:00,73.64133,R,ugm-3
14-01-2016,17:00,75.68692,R,ugm-3
14-01-2016,18:00,76.68477,R,ugm-3
14-01-2016,19:00,77.18370,R,ugm-3
14-01-2016,20:00,76.03617,R,ugm-3
14-01-2016,21:00,74.53940,R,ugm-3
14-01-2016,22:00,74.83875,R,ugm-3
14-01-2016,23:00,76.43531,R,ugm-3
14-01-2016,24:00,79.92779,R,ugm-3
15-01-2016,01:00,79.49538,R,ugm-3
15-01-2016,02:00,78.83015,R,ugm-3
15-01-2016,03:00,79.07961,R,ugm-3
15-01-2016,04:00,76.88434,R,ugm-3
15-01-2016,05:00,76.68477,R,ugm-3
15-01-2016,06:00,76.53510,R,ugm-3
15-01-2016,07:00,75.58714,R,ugm-3
15-01-2016,08:00,74.93854,R,ugm-3
15-01-2016,09:00,72.14456,R,ugm-3
15-01-2016,10:00,70.39832,R,ugm-3
15-01-2016,11:00,72.39402,R,ugm-3
15-01-2016,12:00,71.04692,R,ugm-3
15-01-2016,13:00,70.09896,R,ugm-3
15-01-2016,14:00,73.04262,R,ugm-3
15-01-2016,15:00,74.58929,R,ugm-3
15-01-2016,16:00,75.23789,R,ugm-3
15-01-2016,17:00,76.43531,R,ugm-3
15-01-2016,18:00,77.08391,R,ugm-3
15-01-2016,19:00,77.48305,R,ugm-3
15-01-2016,20:00,77.03402,R,ugm-3
15-01-2016,21:00,76.78456,R,ugm-3
15-01-2016,22:00,75.63703,R,ugm-3
15-01-2016,23:00,74.09036,R,ugm-3
15-01-2016,24:00,71.64563,R,ugm-3
16-01-2016,01:00,70.84735,R,ugm-3
16-01-2016,02:00,67.65423,R,ugm-3
16-01-2016,03:00,68.05337,R,ugm-3
16-01-2016,04:00,66.80606,R,ugm-3
16-01-2016,05:00,66.65638,R,ugm-3
16-01-2016,06:00,66.85595,R,ugm-3
16-01-2016,07:00,67.15531,R,ugm-3
16-01-2016,08:00,68.80176,R,ugm-3
16-01-2016,09:00,69.45036,R,ugm-3
16-01-2016,10:00,68.55230,R,ugm-3
16-01-2016,11:00,69.50025,R,ugm-3
16-01-2016,12:00,68.95144,R,ugm-3
16-01-2016,13:00,69.84950,R,ugm-3
16-01-2016,14:00,67.15531,R,ugm-3
16-01-2016,15:00,69.64993,R,ugm-3
16-01-2016,16:00,70.14886,R,ugm-3
16-01-2016,17:00,72.99273,R,ugm-3
16-01-2016,18:00,73.34198,R,ugm-3
16-01-2016,19:00,74.14026,R,ugm-3
16-01-2016,20:00,71.64563,R,ugm-3
16-01-2016,21:00,72.79316,R,ugm-3
16-01-2016,22:00,73.09251,R,ugm-3
16-01-2016,23:00,71.99488,R,ugm-3
16-01-2016,24:00,70.09896,R,ugm-3
17-01-2016,01:00,69.84950,R,ugm-3
17-01-2016,02:00,68.18642,R,ugm-3
17-01-2016,03:00,67.45466,R,ugm-3
17-01-2016,04:00,70.24864,R,ugm-3
17-01-2016,05:00,73.14241,R,ugm-3
17-01-2016,06:00,69.99918,R,ugm-3
17-01-2016,07:00,67.25509,R,ugm-3
17-01-2016,08:00,66.05767,R,ugm-3
17-01-2016,09:00,65.75832,R,ugm-3
17-01-2016,10:00,68.70197,R,ugm-3
17-01-2016,11:00,65.25939,R,ugm-3
17-01-2016,12:00,65.70842,R,ugm-3
17-01-2016,13:00,64.41122,R,ugm-3
17-01-2016,14:00,65.40907,R,ugm-3
17-01-2016,15:00,66.95574,R,ugm-3
17-01-2016,16:00,66.25724,R,ugm-3
17-01-2016,17:00,69.15101,R,ugm-3
17-01-2016,18:00,67.60434,R,ugm-3
17-01-2016,19:00,65.25939,R,ugm-3
17-01-2016,20:00,63.46326,R,ugm-3
17-01-2016,21:00,62.91444,R,ugm-3
17-01-2016,22:00,66.55660,R,ugm-3
17-01-2016,23:00,66.45681,R,ugm-3
17-01-2016,24:00,63.16391,R,ugm-3
18-01-2016,01:00,61.06842,R,ugm-3
18-01-2016,02:00,59.52175,R,ugm-3
18-01-2016,03:00,59.82111,R,ugm-3
18-01-2016,04:00,60.12046,R,ugm-3
18-01-2016,05:00,59.67143,R,ugm-3
18-01-2016,06:00,61.71702,R,ugm-3
18-01-2016,07:00,62.26584,R,ugm-3
18-01-2016,08:00,62.81466,R,ugm-3
18-01-2016,09:00,66.70627,R,ugm-3
18-01-2016,10:00,67.95359,R,ugm-3
18-01-2016,11:00,65.65853,R,ugm-3
18-01-2016,12:00,61.71702,R,ugm-3
18-01-2016,13:00,64.11186,R,ugm-3
18-01-2016,14:00,70.04907,R,ugm-3
18-01-2016,15:00,70.94714,R,ugm-3
18-01-2016,16:00,71.74542,R,ugm-3
18-01-2016,17:00,71.64563,R,ugm-3
18-01-2016,18:00,69.15101,R,ugm-3
18-01-2016,19:00,68.65208,R,ugm-3
18-01-2016,20:00,70.19875,R,ugm-3
18-01-2016,21:00,71.54585,R,ugm-3
18-01-2016,22:00,70.94714,R,ugm-3
18-01-2016,23:00,70.94714,R,ugm-3
18-01-2016,24:00,70.19875,R,ugm-3
19-01-2016,01:00,71.17997,R,ugm-3
19-01-2016,02:00,68.38599,R,ugm-3
19-01-2016,03:00,69.35058,R,ugm-3
19-01-2016,04:00,69.60004,R,ugm-3
19-01-2016,05:00,69.64993,R,ugm-3
19-01-2016,06:00,69.94929,R,ugm-3
19-01-2016,07:00,69.84950,R,ugm-3
19-01-2016,08:00,68.20305,R,ugm-3
19-01-2016,09:00,68.50240,R,ugm-3
19-01-2016,10:00,64.31143,R,ugm-3
19-01-2016,11:00,69.55015,R,ugm-3
19-01-2016,12:00,69.20090,R,ugm-3
19-01-2016,13:00,69.35058,R,ugm-3
19-01-2016,14:00,73.49165,R,ugm-3
19-01-2016,15:00,74.48950,R,ugm-3
19-01-2016,16:00,75.13811,R,ugm-3
19-01-2016,17:00,76.43531,R,ugm-3
19-01-2016,18:00,74.98843,R,ugm-3
19-01-2016,19:00,74.33983,R,ugm-3
19-01-2016,20:00,71.79531,R,ugm-3
19-01-2016,21:00,71.24649,R,ugm-3
19-01-2016,22:00,70.99703,R,ugm-3
19-01-2016,23:00,69.89939,R,ugm-3
19-01-2016,24:00,69.35058,R,ugm-3
20-01-2016,01:00,69.64993,R,ugm-3
20-01-2016,02:00,72.51043,R,ugm-3
20-01-2016,03:00,66.75617,R,ugm-3
20-01-2016,04:00,69.74972,R,ugm-3
20-01-2016,05:00,68.50240,R,ugm-3
20-01-2016,06:00,68.80176,R,ugm-3
20-01-2016,07:00,68.20305,R,ugm-3
20-01-2016,08:00,67.85380,R,ugm-3
20-01-2016,09:00,69.94929,R,ugm-3
20-01-2016,10:00,69.74972,R,ugm-3
20-01-2016,11:00,70.99703,R,ugm-3
20-01-2016,12:00,73.69122,R,ugm-3
20-01-2016,13:00,76.93424,R,ugm-3
20-01-2016,14:00,77.48305,R,ugm-3
20-01-2016,15:00,76.38542,R,ugm-3
20-01-2016,16:00,74.63918,R,ugm-3
20-01-2016,17:00,71.74542,R,ugm-3
20-01-2016,18:00,68.40262,R,ugm-3
20-01-2016,19:00,65.55875,R,ugm-3
20-01-2016,20:00,64.31143,R,ugm-3
20-01-2016,21:00,64.06197,R,ugm-3
20-01-2016,22:00,64.81036,R,ugm-3
20-01-2016,23:00,59.87100,R,ugm-3
20-01-2016,24:00,54.68218,R,ugm-3
21-01-2016,01:00,57.07702,R,ugm-3
21-01-2016,02:00,56.07917,R,ugm-3
21-01-2016,03:00,56.87745,R,ugm-3
21-01-2016,04:00,58.02498,R,ugm-3
21-01-2016,05:00,56.47831,R,ugm-3
21-01-2016,06:00,57.52605,R,ugm-3
21-01-2016,07:00,58.72347,R,ugm-3
21-01-2016,08:00,60.22025,R,ugm-3
21-01-2016,09:00,61.56735,R,ugm-3
21-01-2016,10:00,61.51745,R,ugm-3
21-01-2016,11:00,67.75402,R,ugm-3
21-01-2016,12:00,70.99703,R,ugm-3
21-01-2016,13:00,70.64778,R,ugm-3
21-01-2016,14:00,68.70197,R,ugm-3
21-01-2016,15:00,66.05767,R,ugm-3
21-01-2016,16:00,61.76692,R,ugm-3
21-01-2016,17:00,56.42842,R,ugm-3
21-01-2016,18:00,53.88390,R,ugm-3
21-01-2016,19:00,51.73852,R,ugm-3
21-01-2016,20:00,51.04003,R,ugm-3
21-01-2016,21:00,50.44132,R,ugm-3
21-01-2016,22:00,49.44347,R,ugm-3
21-01-2016,23:00,49.59315,R,ugm-3
21-01-2016,24:00,48.74497,R,ugm-3
22-01-2016,01:00,47.83028,R,ugm-3
22-01-2016,02:00,44.65379,R,ugm-3
22-01-2016,03:00,42.90755,R,ugm-3
22-01-2016,04:00,41.76002,R,ugm-3
22-01-2016,05:00,41.36088,R,ugm-3
22-01-2016,06:00,42.40863,R,ugm-3
22-01-2016,07:00,44.25465,R,ugm-3
22-01-2016,08:00,44.15486,R,ugm-3
22-01-2016,09:00,44.50411,R,ugm-3
22-01-2016,10:00,43.90540,R,ugm-3
22-01-2016,11:00,44.95314,R,ugm-3
22-01-2016,12:00,74.04047,R,ugm-3
22-01-2016,13:00,80.07746,R,ugm-3
22-01-2016,14:00,82.07316,R,ugm-3
22-01-2016,15:00,81.82370,R,ugm-3
22-01-2016,16:00,81.27488,R,ugm-3
22-01-2016,17:00,81.07531,R,ugm-3
22-01-2016,18:00,81.32478,R,ugm-3
22-01-2016,19:00,81.67402,R,ugm-3
22-01-2016,20:00,81.72392,R,ugm-3
22-01-2016,21:00,82.07316,R,ugm-3
22-01-2016,22:00,82.27273,R,ugm-3
22-01-2016,23:00,81.52435,R,ugm-3
22-01-2016,24:00,81.97338,R,ugm-3
23-01-2016,01:00,82.15632,R,ugm-3
23-01-2016,02:00,82.67187,R,ugm-3
23-01-2016,03:00,81.77381,R,ugm-3
23-01-2016,04:00,81.02542,R,ugm-3
23-01-2016,05:00,80.12736,R,ugm-3
23-01-2016,06:00,77.78241,R,ugm-3
23-01-2016,07:00,79.57854,R,ugm-3
23-01-2016,08:00,75.93639,R,ugm-3
23-01-2016,09:00,70.44821,R,ugm-3
23-01-2016,10:00,65.15961,R,ugm-3
23-01-2016,11:00,77.08391,R,ugm-3
23-01-2016,12:00,79.02972,R,ugm-3
23-01-2016,13:00,78.23144,R,ugm-3
23-01-2016,14:00,77.83230,R,ugm-3
23-01-2016,15:00,77.53295,R,ugm-3
23-01-2016,16:00,76.98413,R,ugm-3
23-01-2016,17:00,77.03402,R,ugm-3
23-01-2016,18:00,76.98413,R,ugm-3
23-01-2016,19:00,74.83875,R,ugm-3
23-01-2016,20:00,63.46326,R,ugm-3
23-01-2016,21:00,58.12476,R,ugm-3
23-01-2016,22:00,55.92949,R,ugm-3
23-01-2016,23:00,62.66498,R,ugm-3
23-01-2016,24:00,63.41337,R,ugm-3
24-01-2016,01:00,67.52118,R,ugm-3
24-01-2016,02:00,67.00563,R,ugm-3
24-01-2016,03:00,64.91014,R,ugm-3
24-01-2016,04:00,60.61939,R,ugm-3
24-01-2016,05:00,58.32433,R,ugm-3
24-01-2016,06:00,56.62799,R,ugm-3
24-01-2016,07:00,57.22670,R,ugm-3
24-01-2016,08:00,55.58025,R,ugm-3
24-01-2016,09:00,55.77982,R,ugm-3
24-01-2016,10:00,57.52605,R,ugm-3
24-01-2016,11:00,61.66713,R,ugm-3
24-01-2016,12:00,61.41767,R,ugm-3
24-01-2016,13:00,60.32003,R,ugm-3
24-01-2016,14:00,59.97079,R,ugm-3
24-01-2016,15:00,60.66928,R,ugm-3
24-01-2016,16:00,62.36563,R,ugm-3
24-01-2016,17:00,63.21380,R,ugm-3
24-01-2016,18:00,62.21595,R,ugm-3
24-01-2016,19:00,59.27229,R,ugm-3
24-01-2016,20:00,52.18756,R,ugm-3
24-01-2016,21:00,48.54540,R,ugm-3
24-01-2016,22:00,45.30239,R,ugm-3
24-01-2016,23:00,45.00304,R,ugm-3
24-01-2016,24:00,45.15271,R,ugm-3
25-01-2016,01:00,44.90325,R,ugm-3
25-01-2016,02:00,54.81523,R,ugm-3
25-01-2016,03:00,55.87960,R,ugm-3
25-01-2016,04:00,55.43057,R,ugm-3
25-01-2016,05:00,59.42197,R,ugm-3
25-01-2016,06:00,62.86455,R,ugm-3
25-01-2016,07:00,63.11401,R,ugm-3
25-01-2016,08:00,62.81466,R,ugm-3
25-01-2016,09:00,61.41767,R,ugm-3
25-01-2016,10:00,64.71057,R,ugm-3
25-01-2016,11:00,64.96004,R,ugm-3
25-01-2016,12:00,70.29853,R,ugm-3
25-01-2016,13:00,77.93209,R,ugm-3
25-01-2016,14:00,81.92349,R,ugm-3
25-01-2016,15:00,83.81940,R,ugm-3
25-01-2016,16:00,82.87144,R,ugm-3
25-01-2016,17:00,81.32478,R,ugm-3
25-01-2016,18:00,80.37682,R,ugm-3
25-01-2016,19:00,81.42456,R,ugm-3
25-01-2016,20:00,79.92779,R,ugm-3
25-01-2016,21:00,79.47875,R,ugm-3
25-01-2016,22:00,77.43316,R,ugm-3
25-01-2016,23:00,76.98413,R,ugm-3
25-01-2016,24:00,76.73467,R,ugm-3
26-01-2016,01:00,78.76363,R,ugm-3
26-01-2016,02:00,79.49538,R,ugm-3
26-01-2016,03:00,76.38542,R,ugm-3
26-01-2016,04:00,68.40262,R,ugm-3
26-01-2016,05:00,67.55445,R,ugm-3
26-01-2016,06:00,70.64778,R,ugm-3
26-01-2016,07:00,68.60219,R,ugm-3
26-01-2016,08:00,70.44821,R,ugm-3
26-01-2016,09:00,74.53940,R,ugm-3
26-01-2016,10:00,73.79101,R,ugm-3
26-01-2016,11:00,72.69337,R,ugm-3
26-01-2016,12:00,74.04047,R,ugm-3
26-01-2016,13:00,78.97983,R,ugm-3
26-01-2016,14:00,81.17510,R,ugm-3
26-01-2016,15:00,82.07316,R,ugm-3
26-01-2016,16:00,82.27273,R,ugm-3
26-01-2016,17:00,81.27488,R,ugm-3
26-01-2016,18:00,76.58499,R,ugm-3
26-01-2016,19:00,71.89509,R,ugm-3
26-01-2016,20:00,73.64133,R,ugm-3
26-01-2016,21:00,77.63273,R,ugm-3
26-01-2016,22:00,80.32693,R,ugm-3
26-01-2016,23:00,81.07531,R,ugm-3
26-01-2016,24:00,80.72607,R,ugm-3
27-01-2016,01:00,79.42886,R,ugm-3
27-01-2016,02:00,76.96750,R,ugm-3
27-01-2016,03:00,71.34628,R,ugm-3
27-01-2016,04:00,65.80821,R,ugm-3
27-01-2016,05:00,61.81681,R,ugm-3
27-01-2016,06:00,61.36778,R,ugm-3
27-01-2016,07:00,60.07057,R,ugm-3
27-01-2016,08:00,58.47401,R,ugm-3
27-01-2016,09:00,59.32218,R,ugm-3
27-01-2016,10:00,61.21810,R,ugm-3
27-01-2016,11:00,52.08777,R,ugm-3
27-01-2016,12:00,51.98799,R,ugm-3
27-01-2016,13:00,61.61724,R,ugm-3
27-01-2016,14:00,73.24219,R,ugm-3
27-01-2016,15:00,76.73467,R,ugm-3
27-01-2016,16:00,79.37897,R,ugm-3
27-01-2016,17:00,82.72177,R,ugm-3
27-01-2016,18:00,80.92564,R,ugm-3
27-01-2016,19:00,81.07531,R,ugm-3
27-01-2016,20:00,81.07531,R,ugm-3
27-01-2016,21:00,80.77596,R,ugm-3
27-01-2016,22:00,79.02972,R,ugm-3
27-01-2016,23:00,80.02757,R,ugm-3
27-01-2016,24:00,80.42671,R,ugm-3
28-01-2016,01:00,82.28936,R,ugm-3
28-01-2016,02:00,82.68850,R,ugm-3
28-01-2016,03:00,84.11876,R,ugm-3
28-01-2016,04:00,84.51790,R,ugm-3
28-01-2016,05:00,84.86714,R,ugm-3
28-01-2016,06:00,85.16650,R,ugm-3
28-01-2016,07:00,85.36607,R,ugm-3
28-01-2016,08:00,85.16650,R,ugm-3
28-01-2016,09:00,84.06886,R,ugm-3
28-01-2016,10:00,82.47230,R,ugm-3
28-01-2016,11:00,81.67402,R,ugm-3
28-01-2016,12:00,82.22284,R,ugm-3
28-01-2016,13:00,81.97338,R,ugm-3
28-01-2016,14:00,83.02112,R,ugm-3
28-01-2016,15:00,81.67402,R,ugm-3
28-01-2016,16:00,75.88649,R,ugm-3
28-01-2016,17:00,70.79746,R,ugm-3
28-01-2016,18:00,74.53940,R,ugm-3
28-01-2016,19:00,83.91919,R,ugm-3
28-01-2016,20:00,83.81940,R,ugm-3
28-01-2016,21:00,84.56779,R,ugm-3
28-01-2016,22:00,84.36822,R,ugm-3
28-01-2016,23:00,82.47230,R,ugm-3
28-01-2016,24:00,84.76736,R,ugm-3
29-01-2016,01:00,81.15847,R,ugm-3
29-01-2016,02:00,81.82370,R,ugm-3
29-01-2016,03:00,80.07746,R,ugm-3
29-01-2016,04:00,79.97768,R,ugm-3
29-01-2016,05:00,79.87789,R,ugm-3
29-01-2016,06:00,82.17295,R,ugm-3
29-01-2016,07:00,84.95030,R,ugm-3
29-01-2016,08:00,,,
29-01-2016,09:00,,,
29-01-2016,10:00,,,
29-01-2016,11:00,,,
29-01-2016,12:00,,,
29-01-2016,13:00,,,
29-01-2016,14:00,,,
29-01-2016,15:00,75.48735,R,ugm-3
29-01-2016,16:00,75.73682,R,ugm-3
29-01-2016,17:00,79.32908,R,ugm-3
29-01-2016,18:00,79.92779,R,ugm-3
29-01-2016,19:00,80.67617,R,ugm-3
29-01-2016,20:00,81.42456,R,ugm-3
29-01-2016,21:00,82.92134,R,ugm-3
29-01-2016,22:00,84.86714,R,ugm-3
29-01-2016,23:00,90.90414,R,ugm-3
29-01-2016,24:00,97.24048,R,ugm-3
30-01-2016,01:00,94.79575,R,ugm-3
30-01-2016,02:00,91.46958,R,ugm-3
30-01-2016,03:00,84.36822,R,ugm-3
30-01-2016,04:00,89.40736,R,ugm-3
30-01-2016,05:00,91.45295,R,ugm-3
30-01-2016,06:00,87.71102,R,ugm-3
30-01-2016,07:00,91.20349,R,ugm-3